| time (UTC) | temp F | wind direction | speed MPH | gust MPH | rain 1hr in | rain 24hr in | rain mn in | humidity % | barometer mb |
| 20260504232758 | 75 | 62 | 0.0 | 7.0 | 0.00 | 0.00 | 0.00 | 54 | 1004.7 |
| 20260504232255 | 75 | 12 | 1.0 | 6.0 | 0.00 | 0.00 | 0.00 | 55 | 1004.5 |
| 20260504231752 | 75 | 18 | 2.0 | 6.0 | 0.00 | 0.00 | 0.00 | 57 | 1004.6 |
| 20260504231248 | 75 | 4 | 2.0 | 5.0 | 0.00 | 0.00 | 0.00 | 58 | 1004.8 |
| 20260504230744 | 74 | 209 | 2.0 | 5.0 | 0.00 | 0.00 | 0.00 | 59 | 1004.7 |
| 20260504230243 | 74 | 215 | 0.0 | 5.0 | 0.00 | 0.00 | 0.00 | 61 | 1004.7 |
| 20260504225741 | 73 | 225 | 3.0 | 5.0 | 0.00 | 0.00 | 0.00 | 61 | 1004.8 |
| 20260504225237 | 73 | 188 | 0.0 | 3.0 | 0.00 | 0.00 | 0.00 | 61 | 1005.0 |
| 20260504224734 | 73 | 173 | 1.0 | 4.0 | 0.00 | 0.00 | 0.00 | 61 | 1005.0 |
| 20260504224231 | 74 | 243 | 0.0 | 3.0 | 0.00 | 0.00 | 0.00 | 60 | 1004.8 |
| 20260504223728 | 74 | 248 | 2.0 | 4.0 | 0.00 | 0.00 | 0.00 | 60 | 1005.0 |
| 20260504223223 | 74 | 214 | 4.0 | 5.0 | 0.00 | 0.00 | 0.00 | 58 | 1005.1 |
| 20260504222721 | 74 | 220 | 2.0 | 4.0 | 0.00 | 0.00 | 0.00 | 59 | 1005.2 |
| 20260504222218 | 75 | 55 | 0.0 | 2.0 | 0.00 | 0.00 | 0.00 | 59 | 1005.1 |
| 20260504221715 | 75 | 345 | 0.0 | 1.0 | 0.00 | 0.00 | 0.00 | 60 | 1005.1 |
| 20260504221212 | 75 | 187 | 0.0 | 4.0 | 0.00 | 0.00 | 0.00 | 59 | 1005.0 |
| 20260504220708 | 75 | 199 | 4.0 | 6.0 | 0.00 | 0.00 | 0.00 | 58 | 1004.8 |
| 20260504220206 | 75 | 203 | 5.0 | 5.0 | 0.00 | 0.00 | 0.00 | 58 | 1005.1 |
| 20260504215702 | 75 | 35 | 0.0 | 3.0 | 0.00 | 0.00 | 0.00 | 58 | 1005.5 |
| 20260504215200 | 74 | 261 | 0.0 | 6.0 | 0.00 | 0.00 | 0.00 | 59 | 1005.6 |
| 20260504214655 | 74 | 261 | 0.0 | 4.0 | 0.00 | 0.00 | 0.00 | 59 | 1005.6 |
| 20260504214152 | 74 | 71 | 1.0 | 7.0 | 0.00 | 0.00 | 0.00 | 58 | 1005.6 |
| 20260504213648 | 74 | 354 | 1.0 | 3.0 | 0.00 | 0.00 | 0.00 | 59 | 1005.6 |
| 20260504213145 | 75 | 53 | 2.0 | 4.0 | 0.00 | 0.00 | 0.00 | 59 | 1005.6 |
| 20260504212642 | 75 | 83 | 1.0 | 3.0 | 0.00 | 0.00 | 0.00 | 58 | 1005.5 |
| 20260504212138 | 75 | 15 | 0.0 | 3.0 | 0.00 | 0.00 | 0.00 | 59 | 1005.7 |
| 20260504211636 | 74 | 57 | 0.0 | 3.0 | 0.00 | 0.00 | 0.00 | 60 | 1006.0 |
| 20260504211132 | 74 | 120 | 1.0 | 6.0 | 0.00 | 0.00 | 0.00 | 57 | 1006.3 |
| 20260504210630 | 74 | 98 | 1.0 | 5.0 | 0.00 | 0.00 | 0.00 | 58 | 1006.0 |
| 20260504210126 | 74 | 105 | 1.0 | 4.0 | 0.00 | 0.00 | 0.00 | 58 | 1006.3 |
| 20260504205624 | 74 | 35 | 0.0 | 4.0 | 0.00 | 0.00 | 0.00 | 58 | 1006.1 |
| 20260504205121 | 74 | 15 | 1.0 | 4.0 | 0.00 | 0.00 | 0.00 | 60 | 1006.1 |
| 20260504204620 | 74 | 154 | 0.0 | 3.0 | 0.00 | 0.00 | 0.00 | 63 | 1006.4 |
| 20260504204118 | 73 | 21 | 2.0 | 3.0 | 0.00 | 0.00 | 0.00 | 59 | 1006.5 |
| 20260504203617 | 73 | 35 | 4.0 | 4.0 | 0.00 | 0.00 | 0.00 | 59 | 1006.4 |
| 20260504203114 | 73 | 270 | 1.0 | 4.0 | 0.00 | 0.00 | 0.00 | 59 | 1006.2 |
| 20260504202609 | 74 | 21 | 2.0 | 5.0 | 0.00 | 0.00 | 0.00 | 60 | 1006.3 |
| 20260504202106 | 75 | 90 | 0.0 | 7.0 | 0.00 | 0.00 | 0.00 | 58 | 1006.3 |
| 20260504201602 | 75 | 73 | 0.0 | 5.0 | 0.00 | 0.00 | 0.00 | 59 | 1006.3 |
| 20260504201100 | 74 | 164 | 0.0 | 6.0 | 0.00 | 0.00 | 0.00 | 60 | 1006.5 |
| 20260504200556 | 74 | 203 | 6.0 | 7.0 | 0.00 | 0.00 | 0.00 | 61 | 1006.5 |
| 20260504200053 | 73 | 66 | 3.0 | 4.0 | 0.00 | 0.00 | 0.00 | 62 | 1006.7 |
| 20260504195549 | 73 | 106 | 0.0 | 4.0 | 0.00 | 0.00 | 0.00 | 62 | 1006.7 |
| 20260504195046 | 72 | 65 | 2.0 | 4.0 | 0.00 | 0.00 | 0.00 | 67 | 1007.0 |
| 20260504194543 | 72 | 43 | 4.0 | 4.0 | 0.00 | 0.00 | 0.00 | 65 | 1007.1 |
| 20260504194038 | 71 | 213 | 5.0 | 8.0 | 0.00 | 0.00 | 0.00 | 65 | 1007.3 |
| 20260504193535 | 71 | 213 | 5.0 | 5.0 | 0.00 | 0.00 | 0.00 | 65 | 1007.2 |
| 20260504193034 | 71 | 171 | 0.0 | 3.0 | 0.00 | 0.00 | 0.00 | 63 | 1006.9 |
| 20260504192532 | 72 | 0 | 0.0 | 2.0 | 0.00 | 0.00 | 0.00 | 70 | 1007.8 |
| 20260504192029 | 71 | 8 | 0.0 | 2.0 | 0.00 | 0.00 | 0.00 | 68 | 1007.8 |
| 20260504191527 | 70 | 218 | 2.0 | 2.0 | 0.00 | 0.00 | 0.00 | 66 | 1007.6 |
| 20260504191023 | 69 | 74 | 0.0 | 2.0 | 0.00 | 0.00 | 0.00 | 68 | 1007.8 |
| 20260504190519 | 68 | 352 | 0.0 | 4.0 | 0.00 | 0.00 | 0.00 | 68 | 1008.0 |
| 20260504190015 | 68 | 173 | 1.0 | 5.0 | 0.00 | 0.00 | 0.00 | 67 | 1008.2 |
| 20260504185513 | 69 | 22 | 2.0 | 3.0 | 0.00 | 0.00 | 0.00 | 68 | 1008.2 |
| 20260504185009 | 69 | 30 | 3.0 | 7.0 | 0.00 | 0.00 | 0.00 | 66 | 1008.1 |
| 20260504184504 | 69 | 61 | 2.0 | 3.0 | 0.00 | 0.00 | 0.00 | 67 | 1008.1 |
| 20260504184000 | 69 | 47 | 3.0 | 7.0 | 0.00 | 0.00 | 0.00 | 67 | 1008.0 |
| 20260504183457 | 70 | 43 | 6.0 | 6.0 | 0.00 | 0.00 | 0.00 | 64 | 1007.8 |
| 20260504182955 | 70 | 180 | 1.0 | 6.0 | 0.00 | 0.00 | 0.00 | 64 | 1007.5 |
| 20260504182452 | 71 | 99 | 0.0 | 4.0 | 0.00 | 0.00 | 0.00 | 65 | 1007.0 |
| 20260504181949 | 71 | 114 | 1.0 | 4.0 | 0.00 | 0.00 | 0.00 | 61 | 1007.2 |
| 20260504181446 | 72 | 120 | 1.0 | 6.0 | 0.00 | 0.00 | 0.00 | 61 | 1006.9 |
| 20260504180945 | 72 | 218 | 5.0 | 11.0 | 0.00 | 0.00 | 0.00 | 61 | 1006.8 |
| 20260504180443 | 71 | 6 | 3.0 | 11.0 | 0.00 | 0.00 | 0.00 | 62 | 1006.9 |
| 20260504175941 | 71 | 45 | 3.0 | 5.0 | 0.00 | 0.00 | 0.00 | 64 | 1006.8 |
| 20260504175438 | 70 | 177 | 3.0 | 6.0 | 0.00 | 0.00 | 0.00 | 66 | 1006.9 |
| 20260504174936 | 70 | 210 | 3.0 | 5.0 | 0.00 | 0.00 | 0.00 | 65 | 1006.7 |
| 20260504174433 | 70 | 176 | 6.0 | 8.0 | 0.00 | 0.00 | 0.00 | 66 | 1007.2 |
| 20260504173930 | 70 | 32 | 0.0 | 5.0 | 0.00 | 0.00 | 0.00 | 66 | 1007.2 |
| 20260504173426 | 69 | 71 | 2.0 | 6.0 | 0.00 | 0.00 | 0.00 | 65 | 1007.3 |
| 20260504172924 | 70 | 65 | 0.0 | 5.0 | 0.00 | 0.00 | 0.00 | 65 | 1007.1 |
| 20260504172420 | 70 | 69 | 0.0 | 3.0 | 0.00 | 0.00 | 0.00 | 66 | 1006.6 |
| 20260504171917 | 69 | 180 | 1.0 | 6.0 | 0.00 | 0.00 | 0.00 | 66 | 1007.1 |
| 20260504171414 | 69 | 249 | 1.0 | 5.0 | 0.00 | 0.00 | 0.00 | 66 | 1007.0 |
| 20260504170911 | 69 | 205 | 3.0 | 8.0 | 0.00 | 0.00 | 0.00 | 67 | 1007.0 |
| 20260504170407 | 69 | 0 | 0.0 | 4.0 | 0.00 | 0.00 | 0.00 | 69 | 1007.6 |
| 20260504160326 | 68 | 206 | 2.0 | 4.0 | 0.00 | 0.00 | 0.00 | 64 | 1007.8 |
| 20260504150751 | 64 | 234 | 1.0 | 2.0 | 0.00 | 0.00 | 0.00 | 71 | 1007.8 |
| 20260504150247 | 64 | 196 | 5.0 | 8.0 | 0.00 | 0.00 | 0.00 | 68 | 1008.0 |
| 20260504141217 | 64 | 216 | 3.0 | 4.0 | 0.00 | 0.00 | 0.00 | 67 | 1008.6 |
| 20260504140714 | 64 | 45 | 2.0 | 3.0 | 0.00 | 0.00 | 0.00 | 68 | 1008.4 |
| 20260504140209 | 63 | 184 | 2.0 | 9.0 | 0.00 | 0.00 | 0.00 | 69 | 1008.7 |
| 20260504130638 | 57 | 194 | 3.0 | 5.0 | 0.00 | 0.00 | 0.00 | 74 | 1008.8 |
| 20260504130134 | 57 | 201 | 2.0 | 7.0 | 0.00 | 0.00 | 0.00 | 74 | 1008.9 |
| 20260504110526 | 53 | 180 | 3.0 | 4.0 | 0.00 | 0.00 | 0.00 | 73 | 1008.7 |
| 20260504100442 | 51 | 82 | 0.0 | 2.0 | 0.00 | 0.00 | 0.00 | 74 | 1008.9 |
| 20260504081835 | 53 | 201 | 5.0 | 5.0 | 0.00 | 0.00 | 0.00 | 68 | 1009.4 |
| 20260504081332 | 53 | 187 | 1.0 | 5.0 | 0.00 | 0.00 | 0.00 | 68 | 1009.6 |
| 20260504080827 | 53 | 63 | 1.0 | 4.0 | 0.00 | 0.00 | 0.00 | 68 | 1009.4 |
| 20260504080325 | 53 | 191 | 1.0 | 5.0 | 0.00 | 0.00 | 0.00 | 68 | 1009.5 |
| 20260504070252 | 53 | 154 | 0.0 | 5.0 | 0.00 | 0.00 | 0.00 | 67 | 1009.9 |
| 20260504060213 | 52 | 175 | 1.0 | 4.0 | 0.00 | 0.00 | 0.00 | 69 | 1010.9 |
| 20260504050640 | 52 | 180 | 0.0 | 3.0 | 0.00 | 0.00 | 0.00 | 69 | 1011.2 |
| 20260504050137 | 52 | 180 | 0.0 | 3.0 | 0.00 | 0.00 | 0.00 | 69 | 1011.2 |
| 20260504045635 | 52 | 192 | 0.0 | 2.0 | 0.00 | 0.00 | 0.00 | 69 | 1011.3 |
| 20260504045134 | 52 | 180 | 2.0 | 3.0 | 0.00 | 0.00 | 0.00 | 68 | 1011.2 |
| 20260504044633 | 52 | 60 | 0.0 | 4.0 | 0.00 | 0.00 | 0.00 | 68 | 1011.5 |
| 20260504044129 | 52 | 105 | 0.0 | 1.0 | 0.00 | 0.00 | 0.00 | 67 | 1011.5 |
| 20260504043626 | 52 | 180 | 1.0 | 3.0 | 0.00 | 0.00 | 0.00 | 67 | 1011.3 |
| 20260504043124 | 52 | 156 | 0.0 | 2.0 | 0.00 | 0.00 | 0.00 | 66 | 1011.5 |
| 20260504042621 | 53 | 172 | 0.0 | 3.0 | 0.00 | 0.00 | 0.00 | 66 | 1011.4 |
| 20260504042117 | 53 | 175 | 0.0 | 2.0 | 0.00 | 0.00 | 0.00 | 66 | 1011.5 |
| 20260504041613 | 53 | 194 | 2.0 | 3.0 | 0.00 | 0.00 | 0.00 | 65 | 1011.5 |
| 20260504041110 | 53 | 157 | 0.0 | 3.0 | 0.00 | 0.00 | 0.00 | 65 | 1011.7 |
| 20260504040607 | 54 | 139 | 2.0 | 3.0 | 0.00 | 0.00 | 0.00 | 64 | 1011.6 |
| 20260504040103 | 54 | 145 | 0.0 | 3.0 | 0.00 | 0.00 | 0.00 | 63 | 1011.6 |
| 20260504035600 | 54 | 169 | 0.0 | 3.0 | 0.00 | 0.00 | 0.00 | 63 | 1012.0 |
| 20260504035056 | 54 | 191 | 0.0 | 2.0 | 0.00 | 0.00 | 0.00 | 63 | 1011.7 |
| 20260504034555 | 54 | 165 | 1.0 | 3.0 | 0.00 | 0.00 | 0.00 | 63 | 1011.8 |
| 20260504034051 | 54 | 189 | 2.0 | 3.0 | 0.00 | 0.00 | 0.00 | 63 | 1012.1 |
| 20260504033549 | 54 | 188 | 0.0 | 2.0 | 0.00 | 0.00 | 0.00 | 62 | 1012.1 |
| 20260504033046 | 55 | 115 | 0.0 | 3.0 | 0.00 | 0.00 | 0.00 | 62 | 1011.8 |
| 20260504032543 | 55 | 185 | 2.0 | 3.0 | 0.00 | 0.00 | 0.00 | 63 | 1012.1 |
| 20260504032040 | 55 | 180 | 2.0 | 2.0 | 0.00 | 0.00 | 0.00 | 62 | 1012.0 |
| 20260504031537 | 55 | 200 | 4.0 | 4.0 | 0.00 | 0.00 | 0.00 | 61 | 1011.9 |
| 20260504031033 | 55 | 189 | 2.0 | 2.0 | 0.00 | 0.00 | 0.00 | 62 | 1011.8 |
| 20260504030531 | 55 | 180 | 0.0 | 2.0 | 0.00 | 0.00 | 0.00 | 62 | 1012.3 |
| 20260504030027 | 55 | 180 | 0.0 | 2.0 | 0.00 | 0.00 | 0.00 | 62 | 1012.1 |
| 20260504025524 | 55 | 192 | 0.0 | 1.0 | 0.00 | 0.00 | 0.00 | 60 | 1012.5 |
| 20260504025020 | 56 | 81 | 0.0 | 2.0 | 0.00 | 0.00 | 0.00 | 60 | 1012.4 |
| 20260504024518 | 56 | 90 | 0.0 | 0.0 | 0.00 | 0.00 | 0.00 | 59 | 1012.5 |
| 20260504024014 | 56 | 90 | 0.0 | 2.0 | 0.00 | 0.00 | 0.00 | 58 | 1012.3 |
| 20260504023511 | 57 | 131 | 0.0 | 2.0 | 0.00 | 0.00 | 0.00 | 58 | 1012.4 |
| 20260504023007 | 57 | 99 | 0.0 | 3.0 | 0.00 | 0.00 | 0.00 | 57 | 1012.5 |
| 20260504022503 | 57 | 148 | 0.0 | 2.0 | 0.00 | 0.00 | 0.00 | 58 | 1012.5 |
| 20260504022000 | 57 | 166 | 1.0 | 2.0 | 0.00 | 0.00 | 0.00 | 56 | 1012.4 |
| 20260504021457 | 57 | 169 | 0.0 | 2.0 | 0.00 | 0.00 | 0.00 | 56 | 1012.3 |
| 20260504020954 | 57 | 99 | 0.0 | 2.0 | 0.00 | 0.00 | 0.00 | 55 | 1012.1 |
| 20260504020450 | 57 | 191 | 1.0 | 2.0 | 0.00 | 0.00 | 0.00 | 55 | 1012.4 |
| 20260504015947 | 57 | 180 | 0.0 | 4.0 | 0.00 | 0.00 | 0.00 | 54 | 1012.5 |
| 20260504015443 | 57 | 180 | 1.0 | 2.0 | 0.00 | 0.00 | 0.00 | 54 | 1012.5 |
| 20260504014939 | 57 | 180 | 1.0 | 2.0 | 0.00 | 0.00 | 0.00 | 55 | 1012.0 |
| 20260504014436 | 57 | 19 | 0.0 | 2.0 | 0.00 | 0.00 | 0.00 | 53 | 1012.0 |
| 20260504013933 | 57 | 145 | 0.0 | 2.0 | 0.00 | 0.00 | 0.00 | 53 | 1011.9 |
| 20260504013431 | 57 | 165 | 1.0 | 2.0 | 0.00 | 0.00 | 0.00 | 52 | 1011.9 |
| 20260504012927 | 58 | 126 | 0.0 | 3.0 | 0.00 | 0.00 | 0.00 | 52 | 1011.7 |
| 20260504012425 | 57 | 187 | 2.0 | 4.0 | 0.00 | 0.00 | 0.00 | 52 | 1011.6 |
| 20260504011922 | 58 | 186 | 3.0 | 3.0 | 0.00 | 0.00 | 0.00 | 51 | 1011.8 |
| 20260504011419 | 58 | 174 | 0.0 | 3.0 | 0.00 | 0.00 | 0.00 | 51 | 1012.0 |
| 20260504010915 | 58 | 203 | 0.0 | 3.0 | 0.00 | 0.00 | 0.00 | 52 | 1011.6 |
| 20260504010411 | 58 | 187 | 1.0 | 3.0 | 0.00 | 0.00 | 0.00 | 51 | 1011.9 |
| 20260504005907 | 57 | 188 | 2.0 | 2.0 | 0.00 | 0.00 | 0.00 | 52 | 1012.3 |
| 20260504005404 | 58 | 192 | 0.0 | 2.0 | 0.00 | 0.00 | 0.00 | 51 | 1012.0 |
| 20260504004902 | 58 | 189 | 3.0 | 4.0 | 0.00 | 0.00 | 0.00 | 51 | 1011.8 |
| 20260504004400 | 58 | 180 | 0.0 | 3.0 | 0.00 | 0.00 | 0.00 | 51 | 1012.1 |
| 20260504003855 | 58 | 206 | 3.0 | 3.0 | 0.00 | 0.00 | 0.00 | 51 | 1012.0 |
| 20260504003352 | 58 | 109 | 0.0 | 3.0 | 0.00 | 0.00 | 0.00 | 51 | 1011.8 |
| 20260504002849 | 58 | 194 | 0.0 | 4.0 | 0.00 | 0.00 | 0.00 | 51 | 1011.7 |
| 20260504002346 | 58 | 186 | 1.0 | 2.0 | 0.00 | 0.00 | 0.00 | 51 | 1011.9 |
| 20260504001843 | 58 | 57 | 2.0 | 2.0 | 0.00 | 0.00 | 0.00 | 51 | 1011.5 |
| 20260504001340 | 59 | 191 | 0.0 | 5.0 | 0.00 | 0.00 | 0.00 | 50 | 1011.7 |
| 20260504000837 | 58 | 180 | 0.0 | 3.0 | 0.00 | 0.00 | 0.00 | 50 | 1011.4 |
| 20260504000334 | 58 | 213 | 2.0 | 4.0 | 0.00 | 0.00 | 0.00 | 50 | 1011.4 |
| 20260503235832 | 58 | 174 | 1.0 | 2.0 | 0.00 | 0.00 | 0.00 | 50 | 1011.5 |
| 20260503235329 | 59 | 173 | 0.0 | 3.0 | 0.00 | 0.00 | 0.00 | 50 | 1011.4 |
| 20260503234827 | 59 | 198 | 3.0 | 5.0 | 0.00 | 0.00 | 0.00 | 50 | 1011.2 |
| 20260503234324 | 59 | 182 | 3.0 | 4.0 | 0.00 | 0.00 | 0.00 | 48 | 1011.5 |
| 20260503233822 | 59 | 239 | 2.0 | 4.0 | 0.00 | 0.00 | 0.00 | 48 | 1011.7 |
| 20260503233318 | 59 | 199 | 2.0 | 5.0 | 0.00 | 0.00 | 0.00 | 48 | 1011.9 |